DW6927 Weather Reports


Display with metric or nautical units.
time (UTC)temp
F
wind
direction
speed
MPH
gust
MPH
rain 1hr
in
rain 24hr
in
rain mn
in
humidity
%
barometer
mb
20260503234554 60 326 0.0 1.0 0.00 0.00 0.00 49 1016.1
20260503234051 61 0 0.0 1.0 0.00 0.00 0.00 48 1016.2
20260503233551 61 0 0.0 1.0 0.00 0.00 0.00 49 1016.1
20260503233055 61 0 0.0 1.0 0.00 0.00 0.00 47 1016.1
20260503232551 62 0 0.0 2.0 0.00 0.00 0.00 48 1016.1
20260503232054 62 0 0.0 2.0 0.00 0.00 0.00 47 1016.2
20260503231555 62 0 0.0 2.0 0.00 0.00 0.00 44 1016.0
20260503231052 62 0 0.0 2.0 0.00 0.00 0.00 42 1016.0
20260503230551 62 332 0.0 2.0 0.00 0.00 0.00 42 1016.2
20260503230058 63 309 0.0 2.0 0.00 0.00 0.00 41 1016.2
20260503225554 63 305 0.0 2.0 0.00 0.00 0.00 43 1016.0
20260503225054 63 0 0.0 2.0 0.00 0.00 0.00 38 1016.1
20260503224554 63 0 0.0 2.0 0.00 0.00 0.00 39 1016.1
20260503224054 63 0 0.0 2.0 0.00 0.00 0.00 42 1016.2
20260503223554 63 0 0.0 3.0 0.00 0.00 0.00 40 1016.0
20260503223053 64 0 0.0 3.0 0.00 0.00 0.00 37 1016.2
20260503222553 64 315 0.0 3.0 0.00 0.00 0.00 40 1016.1
20260503222053 64 0 0.0 3.0 0.00 0.00 0.00 36 1016.1
20260503221558 64 277 1.0 3.0 0.00 0.00 0.00 35 1016.1
20260503221054 64 306 1.0 3.0 0.00 0.00 0.00 37 1016.3
20260503220554 64 306 1.0 3.0 0.00 0.00 0.00 36 1016.2
20260503220057 64 313 0.0 3.0 0.00 0.00 0.00 35 1016.2
20260503215553 64 0 1.0 3.0 0.00 0.00 0.00 34 1016.2
20260503215054 64 306 1.0 3.0 0.00 0.00 0.00 36 1016.2
20260503214557 64 0 1.0 3.0 0.00 0.00 0.00 36 1016.3
20260503214054 65 0 1.0 3.0 0.00 0.00 0.00 37 1016.2
20260503213554 65 280 1.0 3.0 0.00 0.00 0.00 37 1016.3
20260503213111 65 323 1.0 3.0 0.00 0.00 0.00 38 1016.4
20260503212558 65 290 0.0 3.0 0.00 0.00 0.00 38 1016.2
20260503212053 65 352 0.0 3.0 0.00 0.00 0.00 35 1016.4
20260503211555 65 137 0.0 3.0 0.00 0.00 0.00 37 1016.4
20260503211053 65 47 1.0 3.0 0.00 0.00 0.00 35 1016.4
20260503210554 65 0 0.0 3.0 0.00 0.00 0.00 34 1016.5
20260503205555 66 0 1.0 4.0 0.00 0.00 0.00 34 1016.6
20260503205056 66 294 1.0 4.0 0.00 0.00 0.00 35 1016.6
20260503204554 66 309 1.0 4.0 0.00 0.00 0.00 35 1016.5
20260503204058 67 169 2.0 4.0 0.00 0.00 0.00 34 1016.6
20260503203554 67 299 0.0 4.0 0.00 0.00 0.00 34 1016.6
20260503203102 67 239 0.0 3.0 0.00 0.00 0.00 34 1016.7
20260503202554 67 259 1.0 4.0 0.00 0.00 0.00 34 1016.8
20260503202054 67 360 1.0 4.0 0.00 0.00 0.00 35 1017.0
20260503201556 67 236 0.0 3.0 0.00 0.00 0.00 36 1017.2
20260503201054 67 352 0.0 3.0 0.00 0.00 0.00 36 1017.2
20260503200557 66 0 1.0 3.0 0.00 0.00 0.00 37 1017.1
20260503195555 67 225 2.0 4.0 0.00 0.00 0.00 35 1017.2
20260503195054 67 284 1.0 3.0 0.00 0.00 0.00 35 1017.4
20260503194600 67 323 1.0 3.0 0.00 0.00 0.00 37 1017.5
20260503194058 67 339 1.0 3.0 0.00 0.00 0.00 35 1017.5
20260503193555 66 38 0.0 4.0 0.00 0.00 0.00 39 1017.4
20260503193101 66 0 1.0 4.0 0.00 0.00 0.00 35 1017.7
20260503192554 66 0 1.0 4.0 0.00 0.00 0.00 35 1017.8
20260503192051 65 304 1.0 4.0 0.00 0.00 0.00 33 1017.9
20260503191602 65 275 1.0 3.0 0.00 0.00 0.00 36 1017.9
20260503191054 65 0 1.0 4.0 0.00 0.00 0.00 35 1018.0
20260503190551 66 307 1.0 4.0 0.00 0.00 0.00 33 1017.9
20260503190110 66 306 1.0 4.0 0.00 0.00 0.00 32 1018.0
20260503185550 67 0 1.0 3.0 0.00 0.00 0.00 38 1018.0
20260503185058 66 0 0.0 2.0 0.00 0.00 0.00 42 1018.0
20260503184609 65 0 0.0 2.0 0.00 0.00 0.00 40 1018.1
20260503184054 65 0 0.0 3.0 0.00 0.00 0.00 38 1018.2
20260503183554 64 0 0.0 3.0 0.00 0.00 0.00 38 1018.3
20260503183111 65 287 1.0 3.0 0.00 0.00 0.00 36 1018.3
20260503182556 64 317 1.0 3.0 0.00 0.00 0.00 44 1018.4
20260503182052 63 5 1.0 3.0 0.00 0.00 0.00 40 1018.4
20260503181608 63 298 1.0 3.0 0.00 0.00 0.00 39 1018.5
20260503181050 63 215 1.0 4.0 0.00 0.00 0.00 44 1018.4
20260503180554 63 157 1.0 7.0 0.00 0.00 0.00 41 1018.5
20260503180058 63 32 2.0 7.0 0.00 0.00 0.00 44 1018.6
20260503175550 64 0 1.0 6.0 0.00 0.00 0.00 42 1018.6
20260503175054 64 63 1.0 6.0 0.00 0.00 0.00 43 1018.6
20260503174554 64 253 1.0 4.0 0.00 0.00 0.00 44 1018.5
20260503174054 63 326 1.0 4.0 0.00 0.00 0.00 44 1018.6
20260503173554 63 0 0.0 3.0 0.00 0.00 0.00 42 1018.6
20260503173101 63 165 1.0 3.0 0.00 0.00 0.00 46 1018.7
20260503172554 63 284 0.0 3.0 0.00 0.00 0.00 48 1018.8
20260503172053 63 241 1.0 4.0 0.00 0.00 0.00 49 1019.0
20260503171555 63 15 1.0 4.0 0.00 0.00 0.00 47 1019.0
20260503171053 63 0 1.0 3.0 0.00 0.00 0.00 47 1018.9
20260503170554 62 40 1.0 3.0 0.00 0.00 0.00 47 1019.1
20260503150553 57 286 1.0 3.0 0.00 0.00 0.00 57 1020.0
20260503131053 51 0 0.0 1.0 0.00 0.00 0.00 78 1019.9
20260503130553 50 0 0.0 1.0 0.00 0.00 0.00 80 1019.8
20260503110553 39 0 0.0 0.0 0.00 0.00 0.00 88 1018.6
20260503081630 43 0 0.0 1.0 0.00 0.00 0.00 82 1017.1
20260503081053 43 0 0.0 1.0 0.00 0.00 0.00 82 1016.9
20260503080553 43 0 0.0 1.0 0.00 0.00 0.00 82 1017.0
20260503080112 43 227 0.0 0.0 0.00 0.00 0.00 82 1017.1
20260503072553 43 0 0.0 1.0 0.00 0.00 0.00 80 1016.5
20260503072053 43 0 0.0 1.0 0.00 0.00 0.00 80 1016.6
20260503071558 43 0 0.0 1.0 0.00 0.00 0.00 79 1016.6
20260503071050 43 0 0.0 1.0 0.00 0.00 0.00 79 1016.8
20260503070553 44 0 0.0 1.0 0.00 0.00 0.00 79 1016.6
20260503055053 47 0 0.0 0.0 0.00 0.00 0.00 72 1016.3
20260503054554 47 0 0.0 0.0 0.00 0.00 0.00 71 1016.3
20260503054053 47 0 0.0 1.0 0.00 0.00 0.00 71 1016.2
20260503053553 47 0 0.0 1.0 0.00 0.00 0.00 71 1016.3
20260503053053 47 0 0.0 1.0 0.00 0.00 0.00 71 1016.4
20260503052553 47 0 0.0 1.0 0.00 0.00 0.00 71 1016.4
20260503052052 48 0 0.0 1.0 0.00 0.00 0.00 70 1016.4
20260503051553 48 0 0.0 2.0 0.00 0.00 0.00 69 1016.3
20260503051052 48 227 0.0 2.0 0.00 0.00 0.00 69 1016.2
20260503050553 48 0 0.0 2.0 0.00 0.00 0.00 69 1016.3
20260503050054 49 0 0.0 1.0 0.00 0.00 0.00 68 1016.4
20260503045553 49 0 0.0 3.0 0.00 0.00 0.00 69 1016.3
20260503045054 49 0 0.0 3.0 0.00 0.00 0.00 69 1016.4
20260503044559 49 218 0.0 2.0 0.00 0.00 0.00 68 1016.4
20260503044053 49 198 0.0 2.0 0.00 0.00 0.00 68 1016.4
20260503043553 49 0 0.0 2.0 0.00 0.00 0.00 67 1016.4
20260503043059 50 0 0.0 2.0 0.00 0.00 0.00 66 1016.5
20260503042553 50 0 0.0 2.0 0.00 0.00 0.00 67 1016.4
20260503042053 50 296 0.0 2.0 0.00 0.00 0.00 66 1016.5
20260503041553 50 0 1.0 2.0 0.00 0.00 0.00 67 1016.5
20260503041051 50 296 1.0 2.0 0.00 0.00 0.00 65 1016.4
20260503040552 50 296 1.0 2.0 0.00 0.00 0.00 65 1016.3
20260503040054 50 303 1.0 3.0 0.00 0.00 0.00 66 1016.4
20260503035554 50 302 1.0 3.0 0.00 0.00 0.00 66 1016.3
20260503035053 50 306 1.0 2.0 0.00 0.00 0.00 67 1016.1
20260503034551 50 298 1.0 2.0 0.00 0.00 0.00 68 1016.2
20260503034054 50 292 1.0 2.0 0.00 0.00 0.00 68 1016.2
20260503033552 50 0 0.0 0.0 0.00 0.00 0.00 69 1016.2
20260503033127 50 0 0.0 0.0 0.00 0.00 0.00 70 1016.3
20260503032552 50 0 0.0 0.0 0.00 0.00 0.00 68 1016.2
20260503032052 51 0 0.0 0.0 0.00 0.00 0.00 69 1016.1
20260503031559 51 0 0.0 0.0 0.00 0.00 0.00 67 1016.1
20260503031053 51 0 0.0 0.0 0.00 0.00 0.00 65 1015.9
20260503030556 51 0 0.0 0.0 0.00 0.00 0.00 63 1015.9
20260503030107 51 0 0.0 0.0 0.00 0.00 0.00 64 1015.9
20260503025551 51 0 0.0 0.0 0.00 0.00 0.00 64 1015.8
20260503025051 51 0 0.0 0.0 0.00 0.00 0.00 62 1015.7
20260503024618 51 0 0.0 0.0 0.00 0.00 0.00 64 1015.6
20260503024053 51 0 0.0 0.0 0.00 0.00 0.00 64 1015.6
20260503023553 51 0 0.0 0.0 0.00 0.00 0.00 63 1015.6
20260503023055 51 0 0.0 0.0 0.00 0.00 0.00 63 1015.5
20260503022556 50 0 0.0 0.0 0.00 0.00 0.00 62 1015.3
20260503022055 50 0 0.0 0.0 0.00 0.00 0.00 62 1015.2
20260503021600 50 0 0.0 0.0 0.00 0.00 0.00 62 1015.3
20260503021049 50 0 0.0 0.0 0.00 0.00 0.00 62 1015.1
20260503020552 50 0 0.0 0.0 0.00 0.00 0.00 61 1015.1
20260503020058 50 0 0.0 0.0 0.00 0.00 0.00 61 1015.2
20260503015556 50 0 0.0 0.0 0.00 0.00 0.00 61 1015.2
20260503015053 51 0 0.0 0.0 0.00 0.00 0.00 61 1015.2
20260503014559 51 0 0.0 0.0 0.00 0.00 0.00 60 1015.2
20260503014052 51 0 0.0 0.0 0.00 0.00 0.00 60 1015.2
20260503013555 51 0 0.0 0.0 0.00 0.00 0.00 61 1015.0
20260503013054 51 0 0.0 0.0 0.00 0.00 0.00 60 1015.0
20260503012554 51 0 0.0 0.0 0.00 0.00 0.00 60 1014.8
20260503012052 51 0 0.0 0.0 0.00 0.00 0.00 59 1014.7
20260503011559 52 0 0.0 0.0 0.00 0.00 0.00 59 1014.6
20260503011052 52 0 0.0 0.0 0.00 0.00 0.00 58 1014.6
20260503010552 52 0 0.0 0.0 0.00 0.00 0.00 57 1014.5
20260503010055 52 0 0.0 0.0 0.00 0.00 0.00 57 1014.4
20260503005553 53 0 0.0 0.0 0.00 0.00 0.00 57 1014.3
20260503005053 53 0 0.0 0.0 0.00 0.00 0.00 57 1014.3
20260503004555 53 0 0.0 1.0 0.00 0.00 0.00 56 1014.2
20260503004049 53 0 0.0 1.0 0.00 0.00 0.00 55 1014.2
20260503003553 54 0 0.0 1.0 0.00 0.00 0.00 54 1013.9
20260503003106 54 0 0.0 2.0 0.00 0.00 0.00 54 1014.0
20260503002556 54 0 0.0 2.0 0.00 0.00 0.00 54 1013.8
20260503002053 55 295 0.0 3.0 0.00 0.00 0.00 55 1014.0
20260503001601 55 0 0.0 3.0 0.00 0.00 0.00 55 1013.9
20260503001053 56 227 1.0 3.0 0.00 0.00 0.00 53 1014.0
20260503000552 56 0 0.0 2.0 0.00 0.00 0.00 52 1013.7
20260503000107 56 0 0.0 2.0 0.00 0.00 0.00 51 1013.7
20260502235552 56 0 0.0 3.0 0.00 0.00 0.00 52 1013.5
20260502235049 57 286 0.0 3.0 0.00 0.00 0.00 53 1013.6